Regional Weather Roundup
Issued by NWS

Home | Current Version | Previous Version | Graphics & Text | Print | Product List | Glossary On
Versions: 1 2 3 4 5 6 7 8 9 10 11 12 13 14 15 16 17 18 19 20 21 22 23 24 25 26 27 28 29 30 31 32 33 34 35 36 37 38 39 40 41 42 43 44 45 46 47 48 49 50
045
ASUS43 KTOP 062208
RWRKS

WEATHER ROUNDUP FOR KANSAS
NATIONAL WEATHER SERVICE GOODLAND KS
400 PM CST SAT FEB 06 2016

NOTE:  "FAIR" INDICATES FEW OR NO CLOUDS BELOW 12,000 FEET WITH NO
SIGNIFICANT WEATHER AND/OR OBSTRUCTIONS TO VISIBILITY.

KSZ001>006-013>018-027>032-041>047-062300-
NORTHWEST KANSAS

CITY           SKY/WX    TMP DP  RH WIND       PRES   REMARKS
GOODLAND       CLOUDY    41  23  48 SW17      30.11F
HAYS           SUNNY     43  25  49 SW13      30.16F
HILL CITY      SUNNY     42  27  55 SW10      30.13F
RUSSELL        SUNNY     44  29  55 SW14      30.15F
$$

KSZ061>065-074>080-084>089-062300-
SOUTHWEST KANSAS

CITY           SKY/WX    TMP DP  RH WIND       PRES   REMARKS
DODGE CITY     SUNNY     52  11  19 SW15      30.19F
ELKHART          N/A    N/A N/A N/A MISG        N/A
GARDEN CITY    SUNNY     52  14  22 SW13      30.16F
GREAT BEND     SUNNY     52  21  30 W16G22    30.18S
LIBERAL        SUNNY     55  16  21 SW15      30.20F
PRATT          SUNNY     51  17  26 SW9       30.20F
$$

KSZ066>073-081>083-090>101-062300-
SOUTHEAST KANSAS

CITY           SKY/WX    TMP DP  RH WIND       PRES   REMARKS
CHANUTE        SUNNY     51  28  41 W14       30.25F
COFFEYVILLE    SUNNY     52  27  38 SW12      30.27F
HUTCHINSON     SUNNY     52  21  29 SW13      30.20F
MEDICINE LODGE   N/A     54  14  20 W9        30.22F
NEWTON         SUNNY     48  25  40 SW14G21   30.23F
PARSONS        SUNNY     51  28  41 SW9       30.27F
WICHITA INTL   MOSUNNY   51  24  34 SW8       30.23F
WICHITA JABRA  SUNNY     49  23  36 SW12      30.23F
WICHITA MCCONL SUNNY     50  25  37 S12G18    30.23F
WINFIELD       SUNNY     50  26  39 W12       30.27F
$$

KSZ007>012-019>026-033>040-048>060-102>105-062300-
NORTHEAST KANSAS

CITY           SKY/WX    TMP DP  RH WIND       PRES   REMARKS
CONCORDIA      SUNNY     48  24  39 SW16G23   30.14F
EMPORIA        SUNNY     49  27  42 W13       30.22F
LAWRENCE       SUNNY     50  29  44 SW14      30.21F
MANHATTAN      SUNNY     49  26  41 SW14      30.18F
MARYSVILLE     SUNNY     46  30  53 SW10G22   30.14F
OLATHE IND     SUNNY     48  29  47 SW18      30.22F
OLATHE EXE     SUNNY     47  29  49 W9        30.21F
SALINA         SUNNY     53  21  28 SW14      30.18F
TOPEKA BILLARD SUNNY     50  27  40 SW15      30.20F
TOPEKA FORBES  SUNNY     50  28  42 SW14      30.19F
$$




USA.gov is the U.S. government's official web portal to all federal, state and local government web resources and services.